Date String (YYYY-MM-DD hh:mm:ss) UTC,Instrument flags,Ambient pressure (hPa),Sample flow (lpm),Bypass flow (lpm),Sample temperature (°C),Ambient temperature (°C),ASC tube jacket temperature (°C),LED temperature (°C),Box temperature (°C),Sample RH (%),Span deviation,Mass concentration (μg/m³),Mass concentration (μg/m³),Mass concentration (μg/m³)
DateTimeUTC,F1_M11,P_M11,Q1_M11,Q2_M11,T1_M11,T2_M11,T3_M11,T4_M11,T5_M11,U1_M11,ZSPAN_M11,X2_M11,X0_M11,X1_M11
2022-10-06 17:00:00,,0835.2,4.99,0.00,29.9,28.8,00.0,38.5,31.7,20.4,0001.9,0007.57,0012.66,0007.11
2022-10-06 17:01:00,,0835.2,5.02,0.00,29.9,28.8,00.0,38.5,31.8,20.2,0001.5,0007.52,0012.22,0007.09
2022-10-06 17:02:00,,0835.2,4.99,0.00,29.9,28.8,00.0,38.5,31.8,20.3,0001.2,0007.52,0012.20,0007.08
2022-10-06 17:03:00,,0835.2,5.01,0.00,29.9,28.8,00.0,38.5,31.8,19.9,0001.0,0007.53,0012.19,0007.08
2022-10-06 17:04:00,,0835.2,4.99,0.00,29.9,28.8,00.0,38.6,31.8,20.0,0000.9,0007.53,0012.62,0007.09
2022-10-06 17:05:00,,0835.2,5.01,0.00,30.0,28.9,00.0,38.6,31.8,20.0,0000.5,0007.50,0012.75,0007.08
2022-10-06 17:06:00,,0835.2,5.01,0.00,30.0,28.9,00.0,38.6,31.8,20.1,0000.3,0007.48,0012.76,0007.05
2022-10-06 17:07:00,,0835.2,4.99,0.00,30.0,28.9,00.0,38.6,31.9,20.4,0000.6,0007.48,0013.10,0007.03
2022-10-06 17:08:00,,0835.2,5.01,0.00,30.0,28.9,00.0,38.6,31.9,19.9,0000.7,0007.52,0013.37,0007.06
2022-10-06 17:09:00,,0835.2,4.99,0.00,30.0,28.9,00.0,38.6,31.9,19.9,0001.0,0007.56,0013.25,0007.09
2022-10-06 17:10:00,,0835.2,5.00,0.00,30.0,28.9,00.0,38.7,31.9,19.6,0001.0,0007.57,0013.33,0007.11
2022-10-06 17:11:00,,0835.2,4.99,0.00,30.0,28.9,00.0,38.7,31.9,19.5,0000.6,0007.65,0014.33,0007.16
2022-10-06 17:12:00,,0835.2,5.01,0.00,30.1,28.9,00.0,38.7,31.9,19.8,0000.3,0007.70,0014.40,0007.19
2022-10-06 17:13:00,,0835.1,4.99,0.00,30.1,29.0,00.0,38.7,31.9,20.0,0000.7,0007.70,0014.36,0007.19
2022-10-06 17:14:00,,0835.2,5.01,0.00,30.1,29.0,00.0,38.7,31.9,19.9,0001.1,0007.68,0014.25,0007.19
2022-10-06 17:15:00,,0835.2,4.99,0.00,30.1,29.0,00.0,38.7,32.0,20.0,0001.1,0007.65,0013.66,0007.17
2022-10-06 17:16:00,,0835.2,5.01,0.00,30.1,29.0,00.0,38.8,32.0,19.8,0001.6,0007.63,0012.77,0007.16
2022-10-06 17:17:00,,0835.2,5.00,0.00,30.1,29.0,00.0,38.8,32.0,19.6,0001.9,0007.69,0013.32,0007.20
2022-10-06 17:18:00,,0835.1,5.01,0.00,30.2,29.1,00.0,38.8,32.0,19.6,0002.0,0007.74,0013.37,0007.26
2022-10-06 17:19:00,,0835.1,5.01,0.00,30.2,29.1,00.0,38.8,32.0,19.8,0002.1,0007.75,0013.35,0007.28
2022-10-06 17:20:00,,0835.1,4.99,0.00,30.2,29.1,00.0,38.8,32.0,20.4,0001.9,0007.72,0013.28,0007.26
2022-10-06 17:21:00,,0835.1,5.01,0.00,30.2,29.1,00.0,38.8,32.1,20.1,0001.9,0007.67,0012.93,0007.24
2022-10-06 17:22:00,,0835.1,5.01,0.00,30.2,29.1,00.0,38.9,32.1,20.2,0002.2,0007.61,0012.88,0007.21
2022-10-06 17:23:00,,0835.1,5.00,0.00,30.2,29.2,00.0,38.9,32.1,20.3,0002.7,0007.61,0013.31,0007.21
2022-10-06 17:24:00,,0835.1,5.00,0.00,30.3,29.2,00.0,38.9,32.1,20.1,0002.7,0007.63,0013.78,0007.22
2022-10-06 17:25:00,,0835.1,4.99,0.00,30.3,29.2,00.0,38.9,32.1,20.0,0002.7,0007.67,0014.34,0007.24
2022-10-06 17:26:00,,0835.0,5.01,0.00,30.3,29.2,00.0,38.9,32.1,19.8,0002.4,0007.68,0014.33,0007.24
2022-10-06 17:27:00,,0835.0,5.01,0.00,30.3,29.2,00.0,38.9,32.1,19.4,0001.9,0007.71,0014.36,0007.26
2022-10-06 17:28:00,,0835.0,4.99,0.00,30.3,29.3,00.0,39.0,32.2,19.2,0001.6,0007.68,0013.76,0007.26
2022-10-06 17:29:00,,0835.0,5.00,0.00,30.3,29.3,00.0,39.0,32.2,19.3,0001.8,0007.69,0013.45,0007.26
2022-10-06 17:30:00,,0835.0,5.01,0.00,30.4,29.3,00.0,39.0,32.2,19.5,0001.9,0007.69,0013.35,0007.25
2022-10-06 17:31:00,,0835.1,5.00,0.00,30.4,29.3,00.0,39.0,32.2,19.3,0002.1,0007.69,0013.34,0007.26
2022-10-06 17:32:00,,0835.0,5.00,0.00,30.4,29.3,00.0,39.0,32.2,19.1,0002.1,0007.75,0013.43,0007.31
2022-10-06 17:33:00,,0835.1,5.01,0.00,30.4,29.3,00.0,39.0,32.2,18.8,0001.6,0007.84,0012.76,0007.36
2022-10-06 17:34:00,,0835.0,5.00,0.00,30.4,29.4,00.0,39.1,32.3,18.9,0001.4,0007.91,0012.75,0007.43
2022-10-06 17:35:00,,0835.0,5.00,0.00,30.4,29.4,00.0,39.1,32.3,18.7,0001.0,0007.91,0013.06,0007.46
2022-10-06 17:36:00,,0835.0,5.00,0.00,30.5,29.4,00.0,39.1,32.3,19.5,0000.6,0007.92,0012.33,0007.50
2022-10-06 17:37:00,,0835.0,5.00,0.00,30.5,29.4,00.0,39.1,32.3,19.6,0000.6,0007.95,0012.34,0007.54
2022-10-06 17:38:00,,0835.0,4.98,0.00,30.5,29.4,00.0,39.1,32.3,19.6,0001.1,0007.98,0012.38,0007.56
2022-10-06 17:39:00,,0835.0,5.02,0.00,30.5,29.4,00.0,39.1,32.3,20.1,0001.6,0007.99,0012.41,0007.56
2022-10-06 17:40:00,,0835.0,5.00,0.00,30.5,29.4,00.0,39.1,32.4,19.8,0001.4,0008.01,0012.42,0007.57
2022-10-06 17:41:00,,0835.0,5.00,0.00,30.5,28.5,00.0,39.1,32.3,19.6,0001.5,0008.03,0012.40,0007.59
2022-10-06 17:42:00,,0835.0,4.99,0.00,30.5,27.3,00.0,39.1,32.1,19.7,0001.8,0008.11,0012.90,0007.64
2022-10-06 17:43:00,,0834.9,4.98,0.00,30.4,27.3,00.0,39.1,32.1,20.0,0002.2,0008.16,0013.31,0007.68
2022-10-06 17:44:00,,0835.0,5.00,0.00,30.3,27.5,00.0,39.0,32.0,19.5,0002.5,0008.13,0013.62,0007.64
2022-10-06 17:45:00,,0834.9,5.00,0.00,30.3,27.8,00.0,39.0,31.9,19.6,0002.9,0008.09,0014.42,0007.60
2022-10-06 17:46:00,,0834.9,5.00,0.00,30.2,28.1,00.0,39.0,31.9,19.5,0003.1,0008.08,0013.96,0007.54
2022-10-06 17:47:00,,0835.0,5.00,0.00,30.2,28.3,00.0,39.0,31.9,19.1,0002.9,0008.08,0014.06,0007.50
2022-10-06 17:48:00,,0835.0,5.00,0.00,30.2,28.5,00.0,39.0,31.9,18.9,0003.0,0008.07,0014.15,0007.49
2022-10-06 17:49:00,,0835.0,5.00,0.00,30.2,28.6,00.0,38.9,32.0,18.3,0003.0,0008.09,0014.22,0007.48
2022-10-06 17:50:00,,0834.9,5.00,0.00,30.2,28.7,00.0,38.9,32.0,18.0,0002.4,0008.10,0014.28,0007.50
2022-10-06 17:51:00,,0834.9,4.99,0.00,30.2,28.8,00.0,38.9,32.0,18.2,0001.8,0008.12,0014.48,0007.53
2022-10-06 17:52:00,,0834.9,5.00,0.00,30.2,28.9,00.0,38.9,32.0,18.3,0001.5,0008.14,0014.77,0007.54
2022-10-06 17:53:00,,0834.9,5.00,0.00,30.2,28.9,00.0,38.9,32.0,18.8,0001.6,0008.10,0014.55,0007.53
2022-10-06 17:54:00,,0834.8,5.00,0.00,30.2,29.0,00.0,38.9,32.0,19.0,0001.1,0008.05,0014.16,0007.49
2022-10-06 17:55:00,,0834.8,5.01,0.00,30.2,29.0,00.0,38.9,32.1,19.1,0001.0,0008.04,0013.89,0007.49
2022-10-06 17:56:00,,0834.8,4.99,0.00,30.3,29.1,00.0,39.0,32.1,19.3,0000.9,0008.02,0013.30,0007.49
2022-10-06 17:57:00,,0834.8,5.00,0.00,30.3,29.1,00.0,39.0,32.1,18.9,0000.9,0008.03,0013.05,0007.50
2022-10-06 17:58:00,,0834.8,5.01,0.00,30.3,29.2,00.0,39.0,32.1,19.0,0001.3,0008.04,0012.95,0007.52
2022-10-06 17:59:00,,0834.7,4.99,0.00,30.3,29.2,00.0,39.0,32.1,18.9,0001.3,0008.03,0013.21,0007.52
